Date String (YYYY-MM-DD hh:mm:ss) UTC,Instrument flags,Ambient pressure (hPa),Sample flow (lpm),Bypass flow (lpm),Sample temperature (°C),Ambient temperature (°C),ASC tube jacket temperature (°C),LED temperature (°C),Box temperature (°C),Sample RH (%),Span deviation,Mass concentration (μg/m³),Mass concentration (μg/m³),Mass concentration (μg/m³)
DateTimeUTC,F1_M11,P_M11,Q1_M11,Q2_M11,T1_M11,T2_M11,T3_M11,T4_M11,T5_M11,U1_M11,ZSPAN_M11,X0_M11,X2_M11,X1_M11
2022-08-14 11:00:00,,0829.3,4.99,0.00,29.7,28.8,00.0,38.4,31.6,28.2,0000.0,0008.13,0003.76,0003.44
2022-08-14 11:01:00,,0829.3,5.01,0.00,29.7,28.8,00.0,38.4,31.6,28.1,0000.0,0008.04,0003.79,0003.44
2022-08-14 11:02:00,,0829.2,5.00,0.00,29.7,28.8,00.0,38.4,31.7,28.2,0000.0,0008.09,0003.83,0003.46
2022-08-14 11:03:00,,0829.2,5.00,0.00,29.7,28.9,00.0,38.4,31.7,28.0,0000.0,0007.98,0003.85,0003.46
2022-08-14 11:04:00,,0829.2,5.00,0.00,29.8,28.9,00.0,38.5,31.7,28.0,0000.0,0007.62,0003.85,0003.47
2022-08-14 11:05:00,,0829.2,5.00,0.00,29.8,28.9,00.0,38.5,31.7,28.1,0000.0,0007.62,0003.88,0003.49
2022-08-14 11:06:00,,0829.3,5.00,0.00,29.8,29.0,00.0,38.5,31.7,27.6,0000.0,0007.71,0003.91,0003.49
2022-08-14 11:07:00,,0829.3,5.00,0.00,29.8,29.0,00.0,38.5,31.7,27.7,0000.0,0008.14,0003.94,0003.50
2022-08-14 11:08:00,,0829.3,5.00,0.00,29.8,28.6,00.0,38.5,31.6,27.5,0000.0,0007.87,0003.96,0003.50
2022-08-14 11:09:00,,0829.3,5.00,0.00,29.8,27.9,00.0,38.5,31.4,27.9,0000.0,0008.06,0004.00,0003.48
2022-08-14 11:10:00,,0829.3,5.00,0.00,29.7,27.5,00.0,38.5,31.3,28.3,0000.0,0007.98,0003.99,0003.48
2022-08-14 11:11:00,,0829.3,5.00,0.00,29.6,27.4,00.0,38.4,31.2,28.3,0000.0,0008.18,0003.97,0003.49
2022-08-14 11:12:00,,0829.2,5.00,0.00,29.5,27.5,00.0,38.4,31.2,28.3,0000.0,0008.10,0003.94,0003.48
2022-08-14 11:13:00,,0829.4,4.99,0.00,29.5,27.6,00.0,38.4,31.2,28.2,0000.0,0008.00,0003.89,0003.47
2022-08-14 11:14:00,,0829.3,5.01,0.00,29.5,27.8,00.0,38.4,31.3,28.2,0000.0,0007.88,0003.87,0003.46
2022-08-14 11:15:00,,0829.4,4.99,0.00,29.5,27.9,00.0,38.4,31.3,28.2,0000.0,0008.17,0003.87,0003.46
2022-08-14 11:16:00,,0829.4,4.99,0.00,29.5,28.0,00.0,38.4,31.3,28.2,0000.0,0008.14,0003.81,0003.44
2022-08-14 11:17:00,,0829.4,5.00,0.00,29.5,28.1,00.0,38.4,31.4,28.1,0000.0,0008.08,0003.79,0003.44
2022-08-14 11:18:00,,0829.5,5.00,0.00,29.5,28.2,00.0,38.4,31.4,28.1,0000.0,0008.01,0003.76,0003.44
2022-08-14 11:19:00,,0829.5,5.00,0.00,29.5,28.3,00.0,38.4,31.4,28.2,0000.0,0007.79,0003.76,0003.44
2022-08-14 11:20:00,,0829.5,5.00,0.00,29.5,28.4,00.0,38.4,31.5,28.3,0000.0,0007.61,0003.73,0003.44
2022-08-14 11:21:00,,0829.5,5.00,0.00,29.6,28.5,00.0,38.4,31.5,28.4,0000.0,0007.66,0003.74,0003.45
2022-08-14 11:22:00,,0829.5,5.00,0.00,29.6,28.5,00.0,38.4,31.5,28.2,0000.0,0007.90,0003.76,0003.45
2022-08-14 11:23:00,,0829.5,5.00,0.00,29.6,28.6,00.0,38.4,31.5,28.1,0000.0,0007.90,0003.78,0003.45
2022-08-14 11:24:00,,0829.5,5.00,0.00,29.6,28.6,00.0,38.4,31.5,28.1,0000.0,0008.15,0003.84,0003.47
2022-08-14 11:25:00,,0829.5,5.00,0.00,29.6,28.7,00.0,38.4,31.5,28.1,0000.0,0008.92,0003.86,0003.48
2022-08-14 11:26:00,,0829.5,5.00,0.00,29.7,28.7,00.0,38.4,31.5,28.0,0000.0,0008.66,0003.85,0003.50
2022-08-14 11:27:00,,0829.5,4.99,0.00,29.7,28.8,00.0,38.4,31.6,27.8,0000.0,0008.51,0003.84,0003.51
2022-08-14 11:28:00,,0829.5,5.01,0.00,29.7,28.8,00.0,38.4,31.6,27.8,0000.0,0008.48,0003.84,0003.51
2022-08-14 11:29:00,,0829.5,5.00,0.00,29.7,28.8,00.0,38.5,31.7,28.0,0000.0,0008.09,0003.84,0003.52
2022-08-14 11:30:00,,0829.5,4.99,0.00,29.7,28.9,00.0,38.5,31.7,27.7,0000.0,0007.78,0003.85,0003.54
2022-08-14 11:31:00,,0829.5,5.00,0.00,29.8,28.9,00.0,38.5,31.7,27.6,0000.0,0007.86,0003.90,0003.56
2022-08-14 11:32:00,,0829.5,5.01,0.00,29.8,28.9,00.0,38.5,31.7,27.6,0000.0,0007.84,0003.92,0003.58
2022-08-14 11:33:00,,0829.5,5.00,0.00,29.8,28.9,00.0,38.5,31.8,27.9,0000.0,0007.68,0003.93,0003.58
2022-08-14 11:34:00,,0829.5,5.00,0.00,29.8,28.9,00.0,38.5,31.8,28.0,0000.0,0007.83,0003.92,0003.59
2022-08-14 11:35:00,,0829.5,5.00,0.00,29.8,29.0,00.0,38.6,31.7,28.6,0000.0,0007.91,0003.90,0003.59
2022-08-14 11:36:00,,0829.4,4.99,0.00,29.8,28.8,00.0,38.6,31.7,27.8,0000.0,0007.11,0003.90,0003.58
2022-08-14 11:37:00,,0829.4,5.01,0.00,29.8,28.0,00.0,38.5,31.5,27.5,0000.0,0007.06,0003.90,0003.57
2022-08-14 11:38:00,,0829.3,4.99,0.00,29.7,27.5,00.0,38.5,31.3,27.8,0000.0,0007.54,0003.91,0003.56
2022-08-14 11:39:00,,0829.3,4.99,0.00,29.6,27.4,00.0,38.5,31.2,27.7,0000.0,0007.89,0003.92,0003.56
2022-08-14 11:40:00,,0829.3,5.01,0.00,29.5,27.5,00.0,38.4,31.2,28.5,0000.0,0008.16,0003.93,0003.56
2022-08-14 11:41:00,,0829.3,4.99,0.00,29.5,27.6,00.0,38.4,31.2,29.0,0000.0,0008.14,0003.93,0003.55
2022-08-14 11:42:00,,0829.3,5.00,0.00,29.5,27.7,00.0,38.4,31.3,29.2,0000.0,0008.22,0003.93,0003.55
2022-08-14 11:43:00,,0829.4,4.99,0.00,29.5,27.8,00.0,38.4,31.3,29.2,0000.0,0008.58,0003.95,0003.55
2022-08-14 11:44:00,,0829.5,5.00,0.00,29.5,27.9,00.0,38.4,31.3,29.1,0000.0,0008.89,0003.94,0003.55
2022-08-14 11:45:00,,0829.5,5.01,0.00,29.5,28.1,00.0,38.4,31.3,29.0,0000.0,0009.24,0003.95,0003.57
2022-08-14 11:46:00,,0829.5,4.99,0.00,29.5,28.2,00.0,38.4,31.4,29.8,0000.0,0009.20,0003.98,0003.59
2022-08-14 11:47:00,,0829.5,5.00,0.00,29.5,28.2,00.0,38.3,31.4,30.2,0000.0,0009.09,0004.00,0003.61
2022-08-14 11:48:00,,0829.5,5.01,0.00,29.5,28.3,00.0,38.4,31.4,29.7,0000.0,0009.17,0004.02,0003.62
2022-08-14 11:49:00,,0829.5,5.01,0.00,29.5,28.4,00.0,38.4,31.4,29.7,0000.0,0009.02,0004.04,0003.65
2022-08-14 11:50:00,,0829.5,5.00,0.00,29.6,28.5,00.0,38.4,31.5,30.0,0000.0,0008.76,0004.08,0003.68
2022-08-14 11:51:00,,0829.6,5.00,0.00,29.6,28.5,00.0,38.4,31.5,29.7,0000.0,0008.55,0004.12,0003.70
2022-08-14 11:52:00,,0829.6,5.00,0.00,29.6,28.6,00.0,38.4,31.5,29.1,0000.0,0008.52,0004.11,0003.71
2022-08-14 11:53:00,,0829.5,5.00,0.00,29.6,28.6,00.0,38.4,31.5,29.1,0000.0,0008.74,0004.10,0003.71
2022-08-14 11:54:00,,0829.5,5.00,0.00,29.6,28.6,00.0,38.4,31.5,28.8,0000.0,0008.75,0004.06,0003.71
2022-08-14 11:55:00,,0829.5,5.00,0.00,29.6,28.7,00.0,38.4,31.6,28.4,0000.0,0008.80,0004.08,0003.72
2022-08-14 11:56:00,,0829.6,5.00,0.00,29.7,28.7,00.0,38.4,31.6,28.2,0000.0,0008.31,0004.08,0003.71
2022-08-14 11:57:00,,0829.5,5.00,0.00,29.7,28.7,00.0,38.4,31.6,28.6,0000.0,0008.41,0004.10,0003.70
2022-08-14 11:58:00,,0829.5,4.99,0.00,29.7,28.8,00.0,38.4,31.6,27.6,0000.0,0008.38,0004.10,0003.71
2022-08-14 11:59:00,,0829.5,5.00,0.00,29.7,28.8,00.0,38.5,31.7,27.7,0000.0,0008.38,0004.11,0003.71
